User: anonymous   Login
Location: ??
(31.9467°N, 34.8903°E)
Time: 00:09:11
(UTC+00:00)
Language:

Cosmos 1408 - Orbit

View from above orbital plane
View from above orbital plane
View from above satellite
View from above satellite

Ground track
Ground track

The orbit data is extracted from the following two-line orbital elements,

1 13552U 82092A   21021.81421645  .00000977  00000-0  33881-4 0  9994
2 13552  82.5658  60.4794 0019413  83.3422 277.0026 15.28320666 97720
Epoch (UTC): 21 January 2021 19:32:28
Eccentricity: 0.0019413
inclination: 82.5658°
perigee height: 467 km
apogee height: 494 km
right ascension of ascending node: 60.4794°
argument of perigee: 83.3422°
revolutions per day: 15.28320666
mean anomaly at epoch: 277.0026°
orbit number at epoch: 9772

The dashed part of the orbit path shows where the satellite is in the earth's shadow,  

DLR